Shortland Real Estate, NSW, 2307 Newcastle

Thinking about buying in Shortland? Now could not be a better time, with a whopping 2339 properties either residential or commercial there's certainly plenty to choose from.

The average property price for this area is $568,000 with prices in this suburb ranging from $302,000 to $1,674,000.

Distance to the coast is 6 Km.

Shortland Real Estate Market Outlook

In Shortland there has been a history of lower than average prices and demand, offering opportunities for investors or first home owners, especially in the context of the growth in working from home. Low average incomes in Shortland is reflected in smaller and lower quality accommodation. Over time this may change providsing long-term returns but in the short to medium term, prices are likely to be less than state averages. Low average earnings from people in Shortland leads to lower quality housing which also negatively impacts the provision of facilities. As a consequence this area is often seen as less desirable, with lower quality of housing and slower price growth. Low population density implies low demand and limits housing choices and price increases. Could be a good entry point for first home buyers needing to somehow get into the market. Lower than average industry presence in Shortland we believe will be less of a negative impact than it has in the past. Post-COVID and the growth in working from home has lessened the demand for local employment options. This may make Shortland a better buying opportunity than it may have been in the past.

About

For Sale

Century21 62 KING ST, SHORTLAND, NSW, 2307 3 1 1 Under Contract
First National 5 MAWSON ST, SHORTLAND, NSW, 2307 2 1 2 Auction - Guide $690,000 - $750,000

More

Local Schools


Wetlands Environmental Education Centre

Shortland Public School

Our Lady of Victories Primary School

Margaret Jurd College

(While the above schools are located with the suburb of Shortland there may also be nearby schools whose catchments cover this suburb)

Local Crime Stats


Average Local Climate by month


(mm)
RAIN
Min (°C)
TEMP
Max (°C)
TEMP
Min (%)
HUMIDITY
Max (%)
HUMIDITY
(m/sec)
WIND
(MJ/sq m)
SOLAR
Jan2.018.930.148.193.64.624.5
Feb3.318.628.352.794.54.220.7
Mar5.117.426.854.2954.116.6
Apr4.413.724.551.695.83.614.4
May2.610.021.049.393.84.011.3
Jun4.88.718.254.494.24.39.5
Jul2.36.818.346.191.94.510.8
Aug1.86.819.838.591.64.513.7
Sept2.09.423.037.092.54.318.2
Oct2.412.224.841.593.04.421.3
Nov2.515.526.946.893.74.424
Dec2.517.328.247.893.34.624.8

source: Australian Government Bureau of Meteorology

Recently Sold

04-05-2022 $750,000 141 MARSDEN ST SHORTLAND 2307
04-05-2022 $550,000 3 / 33 MARSDEN ST SHORTLAND 2307
02-05-2022 $775,000 181 MARSDEN ST SHORTLAND 2307
21-04-2022 $745,000 46 MARSDEN ST SHORTLAND 2307
21-04-2022 $695,000 37 BARDIA RD SHORTLAND 2307
19-04-2022 $475,000 13 DERNA RD SHORTLAND 2307
24-03-2022 $367,000 4 / 4 HANSEN PL SHORTLAND 2307
18-03-2022 $725,000 154 MARSDEN ST SHORTLAND 2307
18-03-2022 $649,999 2 / 8 MORT ST SHORTLAND 2307
17-03-2022 $300,000 1 / 19 HANSEN PL SHORTLAND 2307
17-03-2022 $300,000 1 / 19 HANSEN PL SHORTLAND 2307
10-03-2022 $360,000 5 MULLARD CL SHORTLAND 2307
08-03-2022 $695,000 20 ALISTER ST SHORTLAND 2307
07-03-2022 $570,000 17 LIBYA ST SHORTLAND 2307
25-02-2022 $345,000 2 / 4 HANSEN PL SHORTLAND 2307
15-02-2022 $600,000 335 SANDGATE RD SHORTLAND 2307
03-02-2022 $795,000 10 MILNE ST SHORTLAND 2307
02-02-2022 $590,000 4 CHAPMAN ST SHORTLAND 2307
31-01-2022 $681,500 21 ALISTER ST SHORTLAND 2307
21-01-2022 $710,000 5 TOBRUK CRES SHORTLAND 2307
21-01-2022 $740,000 103 MARSDEN ST SHORTLAND 2307
21-01-2022 $705,000 2 DERNA RD SHORTLAND 2307
20-01-2022 $653,000 19 MARTON ST SHORTLAND 2307
17-01-2022 $650,000 30 MACARTHUR ST SHORTLAND 2307
17-01-2022 $350,000 466 SANDGATE RD SHORTLAND 2307
12-01-2022 $635,000 12 CORAL SEA AVE SHORTLAND 2307
10-01-2022 $640,000 4 MULLARD CL SHORTLAND 2307
21-12-2021 $748,000 8 MILNE ST SHORTLAND 2307
21-12-2021 $530,000 1 / 301 SANDGATE RD SHORTLAND 2307
21-12-2021 $530,000 1 / 301 SANDGATE RD SHORTLAND 2307
20-12-2021 $935,000 14 MARTON ST SHORTLAND 2307
17-12-2021 $750,000 67 MARSDEN ST SHORTLAND 2307
17-12-2021 $775,000 4 DERNA RD SHORTLAND 2307
16-12-2021 $650,999 7 HANSEN PL SHORTLAND 2307
16-12-2021 $705,000 64 BLANCH ST SHORTLAND 2307
15-12-2021 $765,000 16 CORAL SEA AVE SHORTLAND 2307
13-12-2021 $1,200,000 328 SANDGATE RD SHORTLAND 2307
13-12-2021 $1,200,000 328 SANDGATE RD SHORTLAND 2307
13-12-2021 $1,200,000 328 SANDGATE RD SHORTLAND 2307
13-12-2021 $1,200,000 328 SANDGATE RD SHORTLAND 2307
13-12-2021 $1,200,000 328 SANDGATE RD SHORTLAND 2307
13-12-2021 $1,200,000 328 SANDGATE RD SHORTLAND 2307
13-12-2021 $670,000 22 LOVELL PDE SHORTLAND 2307
13-12-2021 $75,000 9 CORAL SEA AVE SHORTLAND 2307
07-12-2021 $765,000 22 MARSDEN ST SHORTLAND 2307
06-12-2021 $630,000 19 KARLOO ST SHORTLAND 2307
06-12-2021 $592,000 3 / 28 MARSDEN ST SHORTLAND 2307
06-12-2021 $592,000 3 / 28 MARSDEN ST SHORTLAND 2307
06-12-2021 $625,000 10 KESTREL CCT SHORTLAND 2307
06-12-2021 $615,000 6 / 8 MORT ST SHORTLAND 2307

Residz covers 12m+ Australian properties and brings together a wealth of data to give you a better understanding of an area. From crime and schools to bush fire, flood risk and more. Begin your search for properties for sale or learn more about where you currently reside. Residz is an exciting next-generation Real Estate platform getting better by the day!